Juneau, AK

9:35 PM AKST on November 21, 2017 (GMT -0900)
Juneau International

Weather History for PAJN - October, 2011

Change the Weather History Date:

Wednesday, October 26, 2011

  Actual Average Record
Temperature  
Mean Temperature 42 °F 39 °F  
Max Temperature 43 °F 44 °F 57 °F (1942)
Min Temperature 40 °F 34 °F 12 °F (1971)
Degree Days  
Heating Degree Days 23 26  
Month to date heating degree days 581 565  
Since 1 July heating degree days 1689 1549  
Cooling Degree Days 0 0  
Month to date cooling degree days 0 0  
Year to date cooling degree days 0 2  
Moisture  
Dew Point 38 °F    
Average Humidity 88    
Maximum Humidity 93    
Minimum Humidity 82    
Precipitation  
Precipitation 0.22 in 0.24 in 1.61 in (2007)
Month to date precipitation 5.65 7.43  
Year to date precipitation 49.79 49.24  
Snow  
Snow 0.00 in 0.10 in 1.50 in (2008)
Month to date snowfall 0.0 0.3  
Since 1 July snowfall 0.0 0.3  
Since 1 September snowfall 0.0 0.3  
Snow Depth 0.00 in    
Sea Level Pressure  
Sea Level Pressure 29.59 in    
Wind  
Wind Speed 11 mph (East)    
Max Wind Speed 21 mph    
Max Gust Speed 25 mph    
Visibility 10 miles    
Events Rain    
T = Trace of Precipitation, MM = Missing Value Source: NWS Daily Summary

Daily Weather History Graph

Daily Weather History Graph

Search for Another Location

Airport or City:

Trip Planner

Search our weather history database for the weather conditions in past years. The results will help you decide how hot, cold, wet, or windy it might be!

Date:

Astronomy

Oct. 26, 2011 Rise Set
Actual Time 7:59 AM AKDT 5:24 PM AKDT
Civil Twilight 7:17 AM AKDT 6:05 PM AKDT
Nautical Twilight 6:31 AM AKDT 6:51 PM AKDT
Astronomical Twilight 5:45 AM AKDT 7:37 PM AKDT
Moon 8:11 AM AKDT (10/26) 4:51 PM AKDT (10/26)
Length of Visible Light 10h 47m
Length of Day
9h 24m
Waning Crescent, 0% of the Moon is Illuminated
Oct 26
Waning Crescent
Nov 2
First Quarter
Nov 10
Full
Nov 18
Last Quarter
Nov 24
New

Hourly Weather History & Observations

Time (AKDT) Temp. Windchill Dew Point Humidity Pressure Visibility Wind Dir Wind Speed Gust Speed Precip Events Conditions
12:14 AM 39.2 °F 30.8 °F 37.4 °F 93% 29.45 in 6.0 mi ESE 15.0 mph 27.6 mph 0.02 in Rain Light Rain
12:53 AM 39.9 °F 31.4 °F 37.0 °F 89% 29.45 in 8.0 mi ESE 16.1 mph 23.0 mph 0.04 in Rain Light Rain
1:53 AM 39.9 °F 33.9 °F 37.9 °F 93% 29.46 in 10.0 mi ESE 9.2 mph - 0.00 in Rain Light Rain
2:53 AM 39.9 °F 33.9 °F 37.9 °F 93% 29.46 in 10.0 mi East 9.2 mph - 0.00 in   Overcast
3:53 AM 39.9 °F 32.9 °F 37.9 °F 93% 29.47 in 10.0 mi ESE 11.5 mph - N/A   Overcast
4:53 AM 39.9 °F 33.4 °F 37.9 °F 93% 29.47 in 10.0 mi East 10.4 mph - 0.02 in Rain Light Rain
5:53 AM 39.9 °F 31.4 °F 37.9 °F 93% 29.46 in 10.0 mi East 16.1 mph 23.0 mph 0.00 in Rain Light Rain
6:53 AM 39.9 °F 32.5 °F 37.9 °F 93% 29.47 in 9.0 mi East 12.7 mph - 0.01 in Rain Light Rain
7:36 AM 39.2 °F 33.0 °F 37.4 °F 93% 29.49 in 9.0 mi ENE 9.2 mph - 0.02 in Rain Light Rain
7:53 AM 39.9 °F 33.4 °F 37.9 °F 93% 29.49 in 9.0 mi East 10.4 mph - 0.05 in Rain Light Rain
8:12 AM 39.2 °F 32.0 °F 37.4 °F 93% 29.50 in 10.0 mi East 11.5 mph - 0.01 in Rain Light Rain
8:53 AM 39.9 °F 32.9 °F 37.9 °F 93% 29.51 in 10.0 mi East 11.5 mph - 0.02 in   Overcast
9:53 AM 41.0 °F 33.1 °F 37.9 °F 89% 29.53 in 10.0 mi East 15.0 mph - 0.00 in Rain Light Rain
10:53 AM 41.0 °F 32.5 °F 37.9 °F 89% 29.52 in 10.0 mi ESE 17.3 mph - 0.00 in Rain Light Rain
11:53 AM 41.0 °F 32.5 °F 39.0 °F 93% 29.54 in 9.0 mi ESE 17.3 mph - 0.04 in Rain Light Rain
12:16 PM 41.0 °F 35.2 °F 39.2 °F 93% 29.56 in 8.0 mi East 9.2 mph - 0.02 in Rain Rain
12:53 PM 42.1 °F 36.6 °F 39.0 °F 89% 29.57 in 9.0 mi ESE 9.2 mph - 0.07 in Rain Rain
1:53 PM 42.1 °F 34.2 °F 37.9 °F 85% 29.58 in 10.0 mi ESE 16.1 mph - 0.01 in   Overcast
2:53 PM 42.1 °F 34.9 °F 39.0 °F 89% 29.61 in 10.0 mi ESE 13.8 mph 19.6 mph 0.00 in Rain Light Rain
3:36 PM 42.8 °F 36.6 °F 39.2 °F 87% 29.63 in 10.0 mi East 11.5 mph - 0.00 in Rain Light Rain
3:53 PM 42.1 °F 36.1 °F 39.0 °F 89% 29.64 in 10.0 mi ESE 10.4 mph 19.6 mph 0.00 in Rain Light Rain
4:29 PM 42.8 °F 40.1 °F 39.2 °F 87% 29.66 in 10.0 mi ESE 4.6 mph - 0.00 in   Overcast
4:53 PM 42.1 °F 37.7 °F 39.0 °F 89% 29.67 in 10.0 mi East 6.9 mph - 0.00 in   Overcast
5:53 PM 42.1 °F 37.7 °F 39.0 °F 89% 29.69 in 10.0 mi East 6.9 mph - 0.00 in   Overcast
6:53 PM 42.1 °F 38.4 °F 39.0 °F 89% 29.73 in 10.0 mi Variable 5.8 mph - 0.00 in Rain Light Rain
7:53 PM 42.1 °F - 39.0 °F 89% 29.76 in 10.0 mi Calm Calm - 0.00 in   Overcast
8:53 PM 42.1 °F 36.1 °F 37.9 °F 85% 29.79 in 10.0 mi NE 10.4 mph - N/A   Overcast
9:53 PM 39.9 °F 35.1 °F 37.0 °F 89% 29.83 in 10.0 mi East 6.9 mph - N/A   Overcast
10:53 PM 41.0 °F 35.2 °F 37.9 °F 89% 29.86 in 10.0 mi NE 9.2 mph - N/A   Mostly Cloudy
11:53 PM 41.0 °F 35.2 °F 37.0 °F 86% 29.87 in 10.0 mi East 9.2 mph - N/A   Overcast